Kincheloe, MI

10:45 AM EST on February 24, 2017 (GMT -0500)
Chippewa County International

Weather History for KCIU - June, 2012

Change the Weather History Date:

Thursday, June 21, 2012

  Actual Average Record
Temperature  
Mean Temperature 68 °F -  
Max Temperature 78 °F 70 °F 87 °F (2003)
Min Temperature 57 °F 49 °F 32 °F (1992)
Cooling Degree Days 2    
Growing Degree Days 18 (Base 50)    
Moisture  
Dew Point 61 °F    
Average Humidity 81    
Maximum Humidity 100    
Minimum Humidity 64    
Precipitation  
Precipitation 0.18 in - - ()
Sea Level Pressure  
Sea Level Pressure 29.80 in    
Wind  
Wind Speed 8 mph (West)    
Max Wind Speed 16 mph    
Max Gust Speed 24 mph    
Visibility 10 miles    
Events      
Averages and records for this station are not official NWS values.
T = Trace of Precipitation, MM = Missing Value Source: NWS Daily Summary

Daily Weather History Graph

Daily Weather History Graph

Search for Another Location

Airport or City:

Trip Planner

Search our weather history database for the weather conditions in past years. The results will help you decide how hot, cold, wet, or windy it might be!

Date:

Astronomy

Jun. 21, 2012 Rise Set
Actual Time 5:46 AM EDT 9:33 PM EDT
Civil Twilight 5:07 AM EDT 10:12 PM EDT
Nautical Twilight 4:14 AM EDT 11:05 PM EDT
Astronomical Twilight 2:59 AM EDT 12:19 AM EDT
Moon 7:50 AM EDT (6/21) 10:47 PM EDT (6/21)
Length of Visible Light 17h 05m
Length of Day
15h 47m
Waxing Crescent, 4% of the Moon is Illuminated
Jun 21
Waxing Crescent
Jun 26
First Quarter
Jul 3
Full
Jul 10
Last Quarter
Jul 19
New

Hourly Weather History & Observations

Time (EDT) Temp. Dew Point Humidity Pressure Visibility Wind Dir Wind Speed Gust Speed Precip Events Conditions
12:15 AM 78.8 °F 66.2 °F 65% 29.80 in 10.0 mi West 13.8 mph 24.2 mph N/A   Mostly Cloudy
12:35 AM 75.2 °F 66.2 °F 73% 29.80 in 10.0 mi West 12.7 mph - N/A   Mostly Cloudy
12:55 AM 75.2 °F 64.4 °F 69% 29.79 in 10.0 mi SW 9.2 mph - N/A   Partly Cloudy
1:15 AM 73.4 °F 64.4 °F 73% 29.79 in 10.0 mi SW 5.8 mph - N/A   Clear
1:35 AM 73.4 °F 64.4 °F 73% 29.77 in 10.0 mi SSW 6.9 mph - N/A   Clear
1:55 AM 73.4 °F 64.4 °F 73% 29.76 in 10.0 mi South 4.6 mph - N/A   Scattered Clouds
2:15 AM 73.4 °F 64.4 °F 73% 29.76 in 10.0 mi SSW 5.8 mph - N/A   Mostly Cloudy
2:35 AM 71.6 °F 64.4 °F 78% 29.76 in 10.0 mi SSW 4.6 mph - N/A   Overcast
2:55 AM 71.6 °F 64.4 °F 78% 29.76 in 10.0 mi SSW 4.6 mph - N/A   Mostly Cloudy
3:15 AM 71.6 °F 64.4 °F 78% 29.75 in 10.0 mi SW 4.6 mph - N/A   Overcast
3:35 AM 69.8 °F 64.4 °F 83% 29.75 in 10.0 mi SW 4.6 mph - N/A   Mostly Cloudy
3:55 AM 69.8 °F 64.4 °F 83% 29.76 in 10.0 mi WSW 5.8 mph - N/A   Mostly Cloudy
4:15 AM 71.6 °F 64.4 °F 78% 29.74 in 10.0 mi SW 5.8 mph - N/A   Overcast
4:35 AM 71.6 °F 64.4 °F 78% 29.74 in 10.0 mi SW 8.1 mph - N/A   Overcast
4:55 AM 69.8 °F 64.4 °F 83% 29.75 in 10.0 mi WSW 9.2 mph 20.7 mph N/A   Mostly Cloudy
5:15 AM 69.8 °F 64.4 °F 83% 29.73 in 10.0 mi Calm Calm - N/A   Partly Cloudy
5:55 AM 66.2 °F 62.6 °F 88% 29.70 in 10.0 mi SSE 5.8 mph - N/A   Clear
6:15 AM 66.2 °F 62.6 °F 88% 29.70 in 10.0 mi SSE 9.2 mph - N/A   Partly Cloudy
6:35 AM 66.2 °F 62.6 °F 88% 29.69 in 10.0 mi SSE 8.1 mph - N/A   Partly Cloudy
6:55 AM 66.2 °F 62.6 °F 88% 29.72 in 10.0 mi WSW 6.9 mph - N/A   Partly Cloudy
7:15 AM 68.0 °F 62.6 °F 83% 29.74 in 10.0 mi WSW 6.9 mph - N/A   Partly Cloudy
7:35 AM 66.2 °F 62.6 °F 88% 29.75 in 10.0 mi WSW 5.8 mph - N/A   Partly Cloudy
7:55 AM 68.0 °F 62.6 °F 83% 29.76 in 10.0 mi WSW 13.8 mph 18.4 mph N/A   Clear
8:15 AM 68.0 °F 62.6 °F 83% 29.77 in 10.0 mi West 12.7 mph 18.4 mph N/A   Mostly Cloudy
8:35 AM 68.0 °F 62.6 °F 83% 29.76 in 10.0 mi WSW 8.1 mph - N/A   Overcast
8:55 AM 69.8 °F 64.4 °F 83% 29.77 in 10.0 mi West 8.1 mph - N/A   Mostly Cloudy
9:15 AM 68.0 °F 64.4 °F 88% 29.78 in 10.0 mi West 13.8 mph 19.6 mph N/A   Mostly Cloudy
9:35 AM 69.8 °F 62.6 °F 78% 29.78 in 10.0 mi WNW 16.1 mph 19.6 mph N/A   Overcast
9:55 AM 69.8 °F 62.6 °F 78% 29.78 in 10.0 mi NW 11.5 mph - N/A   Overcast
10:15 AM 69.8 °F 62.6 °F 78% 29.77 in 10.0 mi NW 11.5 mph 20.7 mph N/A   Overcast
10:35 AM 69.8 °F 62.6 °F 78% 29.79 in 10.0 mi WNW 9.2 mph - N/A   Overcast
10:55 AM 68.0 °F 62.6 °F 83% 29.79 in 10.0 mi WNW 9.2 mph 18.4 mph N/A   Mostly Cloudy
11:15 AM 68.0 °F 62.6 °F 83% 29.79 in 10.0 mi WNW 8.1 mph - N/A   Mostly Cloudy
11:35 AM 68.0 °F 62.6 °F 83% 29.80 in 10.0 mi West 8.1 mph - N/A   Overcast
11:55 AM 68.0 °F 62.6 °F 83% 29.81 in 10.0 mi West 6.9 mph - N/A   Overcast
12:15 PM 68.0 °F 62.6 °F 83% 29.81 in 10.0 mi West 10.4 mph - N/A   Overcast
12:35 PM 69.8 °F 62.6 °F 78% 29.81 in 10.0 mi West 8.1 mph - N/A   Mostly Cloudy
12:55 PM 69.8 °F 62.6 °F 78% 29.81 in 10.0 mi West 10.4 mph - N/A   Mostly Cloudy
1:15 PM 71.6 °F 60.8 °F 69% 29.81 in 10.0 mi West 9.2 mph - N/A   Mostly Cloudy
1:35 PM 71.6 °F 62.6 °F 73% 29.81 in 10.0 mi North 6.9 mph - N/A   Mostly Cloudy
1:55 PM 71.6 °F 62.6 °F 73% 29.81 in 10.0 mi NNW 5.8 mph - N/A   Overcast
2:15 PM 71.6 °F 62.6 °F 73% 29.80 in 10.0 mi NW 9.2 mph - N/A   Scattered Clouds
2:35 PM 71.6 °F 60.8 °F 69% 29.81 in 10.0 mi NW 9.2 mph - N/A   Scattered Clouds
2:55 PM 71.6 °F 60.8 °F 69% 29.80 in 10.0 mi NNW 11.5 mph - N/A   Scattered Clouds
3:15 PM 71.6 °F 60.8 °F 69% 29.80 in 10.0 mi North 11.5 mph 17.3 mph N/A   Scattered Clouds
3:35 PM 69.8 °F 60.8 °F 73% 29.80 in 10.0 mi NNW 13.8 mph - N/A   Scattered Clouds
3:55 PM 71.6 °F 59.0 °F 64% 29.80 in 10.0 mi NNW 11.5 mph 19.6 mph N/A   Scattered Clouds
4:15 PM 69.8 °F 57.2 °F 64% 29.79 in 10.0 mi NNW 12.7 mph - N/A   Mostly Cloudy
4:35 PM 69.8 °F 57.2 °F 64% 29.79 in 10.0 mi NNW 10.4 mph - N/A   Mostly Cloudy
4:55 PM 69.8 °F 57.2 °F 64% 29.80 in 10.0 mi NW 9.2 mph - N/A   Overcast
5:15 PM 68.0 °F 57.2 °F 68% 29.80 in 10.0 mi NW 4.6 mph - N/A   Overcast
5:35 PM 66.2 °F 59.0 °F 78% 29.80 in 10.0 mi NW 5.8 mph - 0.01 in   Mostly Cloudy
5:55 PM 64.4 °F 57.2 °F 77% 29.81 in 9.0 mi NW 12.7 mph - 0.04 in   Overcast
6:15 PM 62.6 °F 57.2 °F 82% 29.82 in 10.0 mi North 6.9 mph - 0.04 in   Overcast
6:35 PM 62.6 °F 59.0 °F 88% 29.82 in 10.0 mi NNW 9.2 mph - 0.05 in   Overcast
6:55 PM 60.8 °F 59.0 °F 94% 29.83 in 8.0 mi NW 8.1 mph - 0.11 in   Overcast
7:15 PM 60.8 °F 59.0 °F 94% 29.83 in 10.0 mi NW 4.6 mph - 0.03 in   Overcast
7:35 PM 62.6 °F 60.8 °F 94% 29.83 in 10.0 mi NW 5.8 mph - 0.03 in   Overcast
7:55 PM 62.6 °F 60.8 °F 94% 29.84 in 10.0 mi WNW 4.6 mph - 0.03 in   Mostly Cloudy
8:15 PM 62.6 °F 60.8 °F 94% 29.84 in 10.0 mi NW 4.6 mph - N/A   Partly Cloudy
8:35 PM 62.6 °F 60.8 °F 94% 29.85 in 10.0 mi NW 4.6 mph - N/A   Mostly Cloudy
8:55 PM 62.6 °F 60.8 °F 94% 29.86 in 10.0 mi NW 4.6 mph - N/A   Overcast
9:15 PM 62.6 °F 59.0 °F 88% 29.86 in 10.0 mi NW 9.2 mph - N/A   Overcast
9:35 PM 60.8 °F 57.2 °F 88% 29.87 in 10.0 mi WNW 5.8 mph - N/A   Partly Cloudy
9:55 PM 60.8 °F 57.2 °F 88% 29.87 in 10.0 mi WNW 3.5 mph - N/A   Clear
10:15 PM 57.2 °F 57.2 °F 100% 29.88 in 10.0 mi West 3.5 mph - N/A   Clear
10:35 PM 57.2 °F 55.4 °F 94% 29.88 in 10.0 mi West 4.6 mph - N/A   Clear
10:55 PM 57.2 °F 55.4 °F 94% 29.88 in 10.0 mi WSW 3.5 mph - N/A   Clear
11:15 PM 57.2 °F 55.4 °F 94% 29.88 in 10.0 mi SSW 4.6 mph - N/A   Clear
11:35 PM 57.2 °F 57.2 °F 100% 29.87 in 10.0 mi SSW 4.6 mph - N/A   Clear
11:55 PM 57.2 °F 57.2 °F 100% 29.87 in 10.0 mi SW 3.5 mph - N/A   Clear